Home > Weather > Virginia Beach > Past weeks

Flag for USA Past Weather in Virginia Beach, Virginia, USA — Yesterday and Last 2 Weeks

Now
99 °F

Partly sunny.


Feels Like: 108 °F
Forecast: 80 / 98 °F
Wind: 10 mph from Southwest

Location: Virginia Beach - Oceana

Current Time: Jul 25, 2016 at 1:55:46 PM

Latest Report: Jul 25, 2016 at 12:56 PM


Visibility: 10 mi

Pressure: 29.99 "Hg

Humidity: 42%

Dew Point: 72 °F

Location of Virginia BeachLocation

Past Weather in Virginia Beach — Graph

°F

Virginia Beach Temperature Yesterday

Maximum temperature yesterday: 99 °F (at 12:56 PM)
Minimum temperature yesterday: 82 °F (at 4:56 AM)
Average temperature yesterday: 91 °F

High & Low Weather Summary for the Past Weeks

 TemperatureHumidityPressure
High101 °F (Jul 14, 2:56 PM)85% (Jul 15, 6:56 PM)30.20 "Hg (Jul 15, 6:56 PM)
Low73 °F (Jul 20, 2:56 AM)34% (Jul 14, 3:56 PM)29.89 "Hg (Jul 23, 5:56 PM)
Average86 °F63%30.05 "Hg
* Reported Jul 10 11:56 AM — Jul 25 11:56 AM, Virginia Beach, Weather by CustomWeather, © 2016

Note: Actual official high and low records may vary slightly from our data, if they occured in-between our weather recording intervals... More about our weather records

Advertising

Virginia Beach Weather History for the Previous 24 Hours

Scroll right to see more
 ConditionsComfort  
Time TempWeatherWind HumidityBarometerVisibility
11:56 AM
Mon, Jul 25
97 °FPartly sunny.12 mph48%30.01 "Hg10 mi
10:56 AM96 °FPartly sunny.10 mph52%30.01 "Hg10 mi
9:56 AM92 °FSunny.8 mph60%30.01 "Hg10 mi
8:56 AM89 °FPartly sunny.10 mph65%30.02 "Hg10 mi
7:56 AM85 °FPartly sunny.10 mph72%30.03 "Hg10 mi
6:56 AM83 °FPassing clouds.9 mph77%30.02 "Hg10 mi
5:56 AM83 °FPassing clouds.9 mph77%30.01 "Hg10 mi
4:56 AM84 °FPassing clouds.9 mph74%30.00 "Hg10 mi
3:56 AM84 °FPassing clouds.9 mph74%30.00 "Hg10 mi
2:56 AM86 °FPassing clouds.12 mph72%29.99 "Hg10 mi
1:56 AM87 °FPassing clouds.13 mph69%29.99 "Hg10 mi
12:56 AM88 °FClear.9 mph70%29.99 "Hg10 mi
11:56 PM
Sun, Jul 24
88 °FClear.7 mph67%30.00 "Hg10 mi
10:56 PM90 °FClear.8 mph63%30.01 "Hg10 mi
9:56 PM92 °FPassing clouds.8 mph58%30.00 "Hg10 mi
8:56 PM93 °FScattered clouds.6 mph56%29.98 "Hg10 mi
7:56 PM95 °FBroken clouds.8 mph51%29.96 "Hg10 mi
6:56 PM97 °FBroken clouds.7 mph49%29.95 "Hg10 mi
5:56 PM95 °FBroken clouds.5 mph56%29.95 "Hg10 mi
4:56 PM95 °FBroken clouds.6 mph58%29.96 "Hg10 mi
3:56 PM98 °FBroken clouds.8 mph51%29.96 "Hg10 mi
2:56 PM97 °FBroken clouds.9 mph51%29.97 "Hg10 mi
1:56 PM99 °FPartly sunny.8 mph50%29.98 "Hg10 mi
Weather by CustomWeather, © 2016

See weather overviewHow to use our weather pages